QPF
0.03 0.04 0.06 0.13 0.20 0.12 0.08 0.07 0.05 0.04 0.04 0.04 0.04 0.04 0.04 0.05 0.07 0.08 0.10 0.12 0.12 0.10 0.08 0.06 0.04 0.03 0.02 0.01 0.01 0.01 0.01 0.00 0.01 0.01 0.02 0.01 0.01 0.01 0.01 0.01 0.00 0.00 0.00
0.01 0.03 0.08 0.14 0.15 0.13 0.16 0.16 0.13 0.08 0.08 0.08 0.08 0.09 0.10 0.12 0.12 0.15 0.20 0.20 0.17 0.14 0.10 0.07 0.06 0.04 0.03 0.02 0.01 0.01 0.01 0.01 0.00 0.00 0.01 0.01 0.01 0.00 0.00 0.00 0.00 0.00 0.00
0.01 0.02 0.06 0.10 0.13 0.12 0.16 0.15 0.14 0.15 0.14 0.15 0.17 0.19 0.20 0.19 0.20 0.20 0.20 0.18 0.16 0.15 0.12 0.10 0.08 0.05 0.03 0.02 0.01 0.01 0.01 0.00 0.00 0.00 0.01 0.01 0.01 0.01 0.00 0.00 0.00 0.00 0.00
0.01 0.02 0.03 0.05 0.07 0.09 0.10 0.12 0.14 0.17 0.18 0.23 0.28 0.30 0.29 0.28 0.29 0.27 0.24 0.23 0.21 0.20 0.17 0.13 0.08 0.05 0.03 0.02 0.01 0.01 0.00 0.00 0.00 0.00 0.00 0.00 0.00 0.01 0.01 0.00 0.00 0.00 0.00
0.02 0.03 0.04 0.06 0.06 0.08 0.11 0.14 0.18 0.22 0.24 0.28 0.32 0.33 0.33 0.34 0.35 0.35 0.31 0.27 0.23 0.20 0.16 0.10 0.07 0.05 0.03 0.02 0.01 0.00 0.00 0.00 0.00 0.00 0.01 0.01 0.01 0.01 0.01 0.00 0.00 0.00 0.00
0.03 0.03 0.04 0.05 0.07 0.08 0.10 0.14 0.18 0.20 0.23 0.28 0.34 0.36 0.38 0.39 0.38 0.34 0.31 0.27 0.23 0.18 0.12 0.08 0.06 0.04 0.02 0.01 0.01 0.00 0.00 0.00 0.00 0.00 0.00 0.00 0.01 0.01 0.01 0.00 0.00 0.00 0.00
0.04 0.04 0.04 0.05 0.05 0.06 0.08 0.09 0.11 0.14 0.17 0.23 0.27 0.31 0.31 0.34 0.36 0.33 0.29 0.25 0.20 0.16 0.11 0.07 0.05 0.03 0.02 0.01 0.00 0.00 0.00 0.00 0.00 0.00 0.00 0.00 0.00 0.00 0.00 0.00 0.00 0.00 0.00
0.05 0.05 0.05 0.04 0.04 0.04 0.04 0.05 0.06 0.09 0.11 0.15 0.18 0.20 0.21 0.24 0.26 0.27 0.26 0.23 0.20 0.15 0.10 0.06 0.04 0.03 0.02 0.01 0.00 0.00 0.00 0.00 0.00 0.00 0.00 0.00 0.00 0.00 0.00 0.00 0.00 0.00 0.00
0.04 0.04 0.04 0.03 0.03 0.03 0.03 0.03 0.04 0.05 0.07 0.08 0.11 0.15 0.17 0.18 0.19 0.19 0.18 0.15 0.13 0.11 0.08 0.05 0.05 0.04 0.02 0.01 0.00 0.00 0.00 0.00 0.00 0.00 0.00 0.00 0.00 0.00 0.00 0.00 0.00 0.00 0.00
0.04 0.04 0.03 0.02 0.02 0.02 0.02 0.03 0.03 0.04 0.04 0.05 0.07 0.10 0.11 0.12 0.12 0.11 0.10 0.09 0.07 0.06 0.04 0.02 0.02 0.01 0.00 0.00 0.00 0.00 0.00 0.00 0.00 0.00 0.00 0.00 0.00 0.00 0.00 0.00 0.00 0.00 0.00
0.07 0.05 0.04 0.03 0.03 0.03 0.03 0.03 0.04 0.04 0.04 0.05 0.05 0.05 0.05 0.05 0.04 0.03 0.03 0.02 0.02 0.01 0.01 0.00 0.00 0.00 0.00 0.00 0.00 0.00 0.00 0.00 0.00 0.00 0.00 0.00 0.00 0.00 0.00 0.00 0.00 0.00 0.00
0.11 0.09 0.07 0.07 0.06 0.05 0.04 0.03 0.03 0.03 0.03 0.03 0.02 0.02 0.02 0.02 0.01 0.01 0.01 0.01 0.00 0.00 0.00 0.00 0.00 0.00 0.00 0.00 0.00 0.00 0.00 0.00 0.00 0.00 0.00 0.00 0.00 0.00 0.00 0.00 0.00 0.00 0.00
0.17 0.15 0.13 0.11 0.08 0.06 0.04 0.03 0.02 0.02 0.01 0.01 0.01 0.01 0.01 0.01 0.01 0.00 0.00 0.00 0.00 0.00 0.00 0.00 0.00 0.00 0.00 0.00 0.00 0.00 0.00 0.00 0.00 0.00 0.00 0.00 0.00 0.00 0.00 0.00 0.00 0.00 0.00
0.26 0.22 0.18 0.14 0.10 0.06 0.04 0.03 0.02 0.01 0.01 0.01 0.01 0.01 0.01 0.01 0.01 0.01 0.01 0.00 0.00 0.00 0.00 0.00 0.00 0.00 0.00 0.00 0.00 0.00 0.00 0.00 0.00 0.00 0.00 0.00 0.00 0.00 0.00 0.00 0.00 0.00 0.00
0.27 0.23 0.20 0.17 0.13 0.10 0.07 0.05 0.03 0.03 0.02 0.03 0.02 0.02 0.02 0.01 0.01 0.00 0.00 0.00 0.00 0.00 0.00 0.00 0.00 0.00 0.00 0.00 0.00 0.00 0.00 0.00 0.00 0.00 0.00 0.00 0.00 0.01 0.00 0.00 0.00 0.00 0.00
0.26 0.21 0.18 0.16 0.14 0.12 0.10 0.08 0.07 0.06 0.05 0.04 0.03 0.02 0.01 0.01 0.01 0.00 0.00 0.00 0.00 0.00 0.00 0.00 0.00 0.00 0.00 0.00 0.00 0.00 0.00 0.00 0.00 0.00 0.00 0.00 0.00 0.00 0.00 0.00 0.00 0.00 0.00
0.18 0.17 0.18 0.16 0.14 0.12 0.09 0.08 0.06 0.05 0.03 0.02 0.02 0.01 0.00 0.00 0.00 0.00 0.00 0.00 0.00 0.00 0.00 0.00 0.00 0.00 0.00 0.00 0.00 0.00 0.00 0.00 0.00 0.00 0.00 0.00 0.00 0.00 0.00 0.00 0.00 0.00 0.00
0.14 0.14 0.14 0.12 0.10 0.08 0.06 0.04 0.03 0.02 0.01 0.01 0.00 0.00 0.00 0.00 0.00 0.00 0.00 0.00 0.00 0.00 0.00 0.00 0.00 0.00 0.00 0.00 0.00 0.00 0.00 0.00 0.00 0.00 0.00 0.00 0.00 0.00 0.00 0.00 0.00 0.00 0.00
0.11 0.10 0.09 0.08 0.06 0.04 0.03 0.01 0.01 0.00 0.00 0.00 0.00 0.00 0.01 0.01 0.00 0.00 0.00 0.00 0.00 0.00 0.00 0.00 0.00 0.00 0.00 0.00 0.00 0.00 0.00 0.00 0.00 0.00 0.00 0.00 0.00 0.00 0.00 0.00 0.00 0.00 0.00
0.07 0.06 0.05 0.04 0.03 0.02 0.01 0.01 0.00 0.00 0.00 0.00 0.00 0.00 0.00 0.00 0.00 0.00 0.00 0.00 0.00 0.00 0.00 0.00 0.00 0.00 0.00 0.00 0.00 0.00 0.00 0.00 0.00 0.00 0.00 0.00 0.00 0.00 0.00 0.00 0.00 0.00 0.00
0.04 0.03 0.02 0.01 0.01 0.01 0.01 0.00 0.00 0.00 0.00 0.00 0.00 0.00 0.00 0.00 0.00 0.00 0.00 0.00 0.00 0.00 0.00 0.00 0.00 0.00 0.00 0.00 0.00 0.00 0.00 0.00 0.00 0.00 0.00 0.00 0.00 0.00 0.00 0.00 0.00 0.00 0.00
0.02 0.02 0.01 0.00 0.00 0.01 0.01 0.01 0.01 0.01 0.00 0.00 0.00 0.00 0.00 0.00 0.00 0.00 0.00 0.00 0.00 0.00 0.00 0.00 0.00 0.00 0.00 0.00 0.00 0.00 0.00 0.00 0.00 0.00 0.00 0.00 0.00 0.00 0.00 0.00 0.00 0.00 0.01
0.01 0.01 0.01 0.01 0.01 0.01 0.01 0.01 0.01 0.01 0.01 0.01 0.01 0.01 0.01 0.00 0.00 0.00 0.00 0.00 0.00 0.00 0.00 0.00 0.00 0.00 0.00 0.00 0.00 0.00 0.00 0.00 0.00 0.00 0.00 0.00 0.00 0.01 0.01 0.01 0.01 0.01 0.01
0.01 0.01 0.01 0.01 0.01 0.01 0.01 0.01 0.01 0.01 0.01 0.01 0.01 0.02 0.01 0.01 0.00 0.00 0.00 0.00 0.00 0.00 0.00 0.00 0.00 0.00 0.00 0.00 0.00 0.00 0.00 0.00 0.00 0.00 0.00 0.00 0.01 0.01 0.02 0.02 0.01 0.01 0.01
0.01 0.01 0.01 0.01 0.01 0.01 0.01 0.00 0.00 0.01 0.01 0.01 0.01 0.01 0.01 0.01 0.01 0.01 0.01 0.00 0.00 0.00 0.00 0.00 0.00 0.00 0.00 0.00 0.00 0.00 0.00 0.00 0.00 0.00 0.00 0.01 0.01 0.02 0.02 0.02 0.02 0.02 0.01
0.00 0.00 0.00 0.00 0.00 0.00 0.00 0.00 0.00 0.00 0.00 0.01 0.01 0.01 0.01 0.02 0.02 0.02 0.01 0.00 0.00 0.00 0.00 0.00 0.00 0.00 0.00 0.00 0.00 0.01 0.01 0.00 0.00 0.01 0.01 0.02 0.02 0.03 0.03 0.02 0.02 0.02 0.02
MSLP
1010.23 1010.46 1010.63 1010.71 1010.71 1010.66 1010.62 1010.61 1010.71 1010.92 1011.28 1011.75 1012.31 1012.91 1013.51 1014.07 1014.55 1014.95 1015.28 1015.57 1015.85 1016.15 1016.49 1016.88 1017.31 1017.77 1018.23 1018.68 1019.09 1019.45 1019.77 1020.04 1020.28 1020.49 1020.68 1020.83 1020.94 1021.00 1020.99 1020.92 1020.78 1020.59 1020.36
1010.87 1011.07 1011.15 1011.11 1010.98 1010.78 1010.59 1010.48 1010.51 1010.72 1011.10 1011.65 1012.31 1013.02 1013.72 1014.36 1014.90 1015.34 1015.70 1016.00 1016.28 1016.58 1016.91 1017.30 1017.72 1018.16 1018.59 1018.99 1019.36 1019.67 1019.94 1020.17 1020.39 1020.59 1020.79 1020.96 1021.09 1021.17 1021.17 1021.08 1020.91 1020.68 1020.40
1011.63 1011.78 1011.79 1011.64 1011.38 1011.06 1010.77 1010.57 1010.56 1010.76 1011.18 1011.79 1012.53 1013.33 1014.11 1014.82 1015.42 1015.90 1016.27 1016.58 1016.86 1017.16 1017.48 1017.84 1018.24 1018.64 1019.03 1019.37 1019.68 1019.92 1020.14 1020.34 1020.53 1020.73 1020.93 1021.13 1021.29 1021.39 1021.41 1021.33 1021.15 1020.88 1020.55
1012.50 1012.60 1012.53 1012.30 1011.94 1011.54 1011.17 1010.94 1010.90 1011.11 1011.57 1012.22 1013.02 1013.88 1014.71 1015.46 1016.08 1016.57 1016.96 1017.27 1017.55 1017.83 1018.14 1018.48 1018.84 1019.20 1019.53 1019.82 1020.06 1020.25 1020.42 1020.58 1020.76 1020.96 1021.18 1021.40 1021.60 1021.73 1021.77 1021.70 1021.51 1021.22 1020.85
1013.43 1013.47 1013.34 1013.05 1012.65 1012.21 1011.83 1011.58 1011.56 1011.78 1012.26 1012.94 1013.76 1014.63 1015.47 1016.22 1016.84 1017.33 1017.70 1018.00 1018.27 1018.54 1018.83 1019.15 1019.47 1019.79 1020.08 1020.32 1020.51 1020.66 1020.79 1020.93 1021.10 1021.30 1021.54 1021.79 1022.01 1022.17 1022.24 1022.18 1022.00 1021.69 1021.31
1014.37 1014.36 1014.19 1013.88 1013.48 1013.05 1012.68 1012.47 1012.48 1012.73 1013.22 1013.90 1014.70 1015.55 1016.35 1017.06 1017.64 1018.10 1018.45 1018.72 1018.98 1019.24 1019.51 1019.81 1020.12 1020.41 1020.66 1020.87 1021.02 1021.15 1021.26 1021.38 1021.54 1021.75 1022.00 1022.26 1022.50 1022.68 1022.75 1022.71 1022.53 1022.23 1021.84
1015.23 1015.19 1015.02 1014.73 1014.37 1014.00 1013.70 1013.54 1013.60 1013.88 1014.37 1015.03 1015.79 1016.57 1017.30 1017.93 1018.45 1018.85 1019.16 1019.41 1019.65 1019.90 1020.17 1020.47 1020.76 1021.04 1021.28 1021.46 1021.60 1021.70 1021.79 1021.91 1022.06 1022.26 1022.49 1022.75 1022.98 1023.16 1023.24 1023.20 1023.03 1022.74 1022.35
1015.98 1015.94 1015.79 1015.56 1015.27 1015.00 1014.79 1014.73 1014.84 1015.15 1015.64 1016.25 1016.93 1017.62 1018.25 1018.79 1019.22 1019.56 1019.83 1020.06 1020.29 1020.54 1020.82 1021.11 1021.41 1021.68 1021.91 1022.08 1022.20 1022.29 1022.36 1022.46 1022.58 1022.75 1022.96 1023.17 1023.38 1023.53 1023.60 1023.56 1023.40 1023.13 1022.76
1016.59 1016.57 1016.48 1016.33 1016.15 1015.99 1015.91 1015.94 1016.12 1016.46 1016.92 1017.48 1018.08 1018.65 1019.18 1019.61 1019.96 1020.24 1020.47 1020.68 1020.91 1021.17 1021.46 1021.77 1022.06 1022.33 1022.55 1022.72 1022.82 1022.89 1022.93 1022.99 1023.07 1023.18 1023.33 1023.48 1023.63 1023.74 1023.78 1023.73 1023.58 1023.34 1023.01
1017.07 1017.11 1017.09 1017.04 1016.99 1016.96 1017.00 1017.13 1017.38 1017.73 1018.17 1018.67 1019.17 1019.64 1020.05 1020.40 1020.67 1020.89 1021.10 1021.31 1021.55 1021.82 1022.12 1022.44 1022.74 1023.01 1023.21 1023.36 1023.43 1023.46 1023.46 1023.46 1023.47 1023.51 1023.57 1023.65 1023.72 1023.77 1023.77 1023.70 1023.56 1023.35 1023.07
1017.49 1017.59 1017.66 1017.72 1017.79 1017.89 1018.04 1018.26 1018.56 1018.93 1019.34 1019.77 1020.19 1020.56 1020.88 1021.14 1021.35 1021.55 1021.74 1021.96 1022.21 1022.50 1022.82 1023.14 1023.44 1023.69 1023.87 1023.98 1024.02 1024.00 1023.94 1023.86 1023.79 1023.74 1023.71 1023.68 1023.67 1023.64 1023.59 1023.50 1023.37 1023.19 1022.96
1017.90 1018.08 1018.24 1018.40 1018.57 1018.78 1019.02 1019.32 1019.66 1020.03 1020.41 1020.78 1021.12 1021.41 1021.66 1021.86 1022.03 1022.21 1022.40 1022.63 1022.90 1023.20 1023.53 1023.84 1024.12 1024.34 1024.49 1024.56 1024.54 1024.47 1024.34 1024.19 1024.04 1023.89 1023.76 1023.64 1023.54 1023.44 1023.33 1023.21 1023.08 1022.92 1022.72
1018.39 1018.63 1018.86 1019.10 1019.36 1019.65 1019.96 1020.30 1020.67 1021.03 1021.38 1021.70 1021.97 1022.20 1022.39 1022.55 1022.70 1022.86 1023.06 1023.31 1023.59 1023.90 1024.21 1024.51 1024.76 1024.94 1025.04 1025.05 1024.99 1024.85 1024.67 1024.46 1024.23 1024.00 1023.78 1023.57 1023.38 1023.21 1023.05 1022.89 1022.74 1022.59 1022.42
1018.98 1019.27 1019.56 1019.85 1020.16 1020.50 1020.85 1021.22 1021.59 1021.94 1022.26 1022.53 1022.75 1022.92 1023.07 1023.20 1023.33 1023.50 1023.71 1023.95 1024.24 1024.53 1024.83 1025.09 1025.30 1025.43 1025.48 1025.44 1025.33 1025.15 1024.92 1024.66 1024.37 1024.09 1023.80 1023.52 1023.26 1023.02 1022.80 1022.60 1022.42 1022.24 1022.07
1019.68 1020.00 1020.31 1020.63 1020.97 1021.33 1021.70 1022.07 1022.43 1022.75 1023.03 1023.26 1023.44 1023.57 1023.68 1023.80 1023.92 1024.09 1024.29 1024.53 1024.80 1025.07 1025.33 1025.54 1025.70 1025.77 1025.77 1025.69 1025.54 1025.34 1025.08 1024.80 1024.48 1024.16 1023.83 1023.50 1023.18 1022.87 1022.59 1022.34 1022.11 1021.90 1021.70
1020.47 1020.79 1021.10 1021.42 1021.76 1022.12 1022.48 1022.84 1023.17 1023.47 1023.71 1023.90 1024.04 1024.14 1024.23 1024.32 1024.44 1024.60 1024.79 1025.01 1025.25 1025.48 1025.69 1025.85 1025.94 1025.97 1025.92 1025.81 1025.64 1025.42 1025.16 1024.87 1024.56 1024.22 1023.86 1023.50 1023.13 1022.76 1022.42 1022.09 1021.80 1021.54 1021.28
1021.28 1021.58 1021.87 1022.17 1022.50 1022.83 1023.18 1023.51 1023.82 1024.08 1024.29 1024.44 1024.55 1024.63 1024.70 1024.77 1024.88 1025.01 1025.18 1025.38 1025.58 1025.76 1025.91 1026.01 1026.05 1026.03 1025.94 1025.81 1025.63 1025.41 1025.17 1024.89 1024.58 1024.24 1023.88 1023.48 1023.07 1022.65 1022.23 1021.84 1021.47 1021.14 1020.82
1022.05 1022.32 1022.58 1022.86 1023.15 1023.46 1023.78 1024.08 1024.36 1024.59 1024.77 1024.90 1024.98 1025.03 1025.08 1025.14 1025.22 1025.34 1025.48 1025.64 1025.80 1025.93 1026.03 1026.07 1026.06 1025.99 1025.88 1025.73 1025.55 1025.34 1025.11 1024.85 1024.56 1024.22 1023.84 1023.42 1022.96 1022.48 1022.00 1021.53 1021.09 1020.68 1020.31
1022.74 1022.97 1023.20 1023.44 1023.70 1023.98 1024.27 1024.55 1024.80 1025.01 1025.16 1025.26 1025.32 1025.35 1025.39 1025.43 1025.50 1025.59 1025.71 1025.83 1025.95 1026.04 1026.08 1026.08 1026.02 1025.93 1025.79 1025.63 1025.44 1025.24 1025.02 1024.77 1024.48 1024.14 1023.74 1023.29 1022.78 1022.25 1021.70 1021.16 1020.66 1020.19 1019.77
1023.32 1023.51 1023.70 1023.91 1024.14 1024.40 1024.67 1024.92 1025.15 1025.33 1025.46 1025.54 1025.58 1025.61 1025.63 1025.66 1025.71 1025.79 1025.89 1025.98 1026.07 1026.12 1026.13 1026.09 1026.00 1025.88 1025.72 1025.55 1025.36 1025.16 1024.93 1024.68 1024.37 1024.01 1023.58 1023.08 1022.53 1021.94 1021.34 1020.74 1020.19 1019.68 1019.23
1023.78 1023.94 1024.10 1024.28 1024.49 1024.73 1024.97 1025.20 1025.41 1025.57 1025.68 1025.75 1025.78 1025.79 1025.80 1025.83 1025.88 1025.95 1026.03 1026.11 1026.17 1026.20 1026.19 1026.13 1026.03 1025.89 1025.72 1025.53 1025.32 1025.10 1024.86 1024.57 1024.24 1023.84 1023.36 1022.82 1022.22 1021.58 1020.94 1020.31 1019.73 1019.21 1018.76
1024.13 1024.26 1024.39 1024.56 1024.75 1024.96 1025.19 1025.40 1025.59 1025.73 1025.82 1025.88 1025.90 1025.91 1025.92 1025.94 1025.99 1026.06 1026.14 1026.21 1026.27 1026.30 1026.28 1026.21 1026.10 1025.95 1025.76 1025.56 1025.33 1025.08 1024.80 1024.48 1024.09 1023.64 1023.12 1022.53 1021.89 1021.22 1020.55 1019.91 1019.32 1018.81 1018.38
1024.39 1024.49 1024.61 1024.76 1024.93 1025.13 1025.33 1025.53 1025.69 1025.81 1025.89 1025.93 1025.94 1025.95 1025.96 1025.99 1026.04 1026.11 1026.20 1026.28 1026.35 1026.38 1026.36 1026.30 1026.19 1026.03 1025.84 1025.61 1025.36 1025.08 1024.76 1024.38 1023.95 1023.44 1022.87 1022.24 1021.57 1020.88 1020.21 1019.57 1019.01 1018.53 1018.14
1024.58 1024.66 1024.76 1024.89 1025.05 1025.22 1025.41 1025.57 1025.71 1025.81 1025.87 1025.90 1025.91 1025.91 1025.92 1025.96 1026.02 1026.10 1026.20 1026.29 1026.37 1026.41 1026.41 1026.36 1026.25 1026.10 1025.90 1025.66 1025.38 1025.06 1024.70 1024.28 1023.80 1023.25 1022.65 1021.99 1021.31 1020.62 1019.95 1019.34 1018.81 1018.37 1018.03
1024.70 1024.77 1024.86 1024.97 1025.11 1025.25 1025.41 1025.55 1025.65 1025.73 1025.77 1025.79 1025.79 1025.79 1025.81 1025.84 1025.92 1026.01 1026.12 1026.23 1026.32 1026.38 1026.39 1026.35 1026.26 1026.11 1025.91 1025.66 1025.36 1025.02 1024.62 1024.17 1023.65 1023.08 1022.46 1021.80 1021.12 1020.45 1019.81 1019.24 1018.74 1018.34 1018.03
1024.78 1024.84 1024.91 1025.01 1025.11 1025.23 1025.35 1025.46 1025.53 1025.58 1025.60 1025.61 1025.60 1025.60 1025.62 1025.67 1025.75 1025.85 1025.97 1026.09 1026.20 1026.27 1026.30 1026.27 1026.19 1026.04 1025.84 1025.59 1025.29 1024.93 1024.51 1024.05 1023.52 1022.95 1022.33 1021.68 1021.02 1020.38 1019.79 1019.25 1018.79 1018.42 1018.12
Thickness
5786 5792 5796 5798 5795 5790 5787 5786 5785 5782 5777 5771 5765 5758 5751 5748 5745 5742 5738 5734 5730 5727 5723 5718 5714 5710 5705 5699 5695 5691 5686 5681 5679 5676 5672 5670 5668 5665 5662 5659 5656 5654 5652
5776 5783 5787 5790 5787 5784 5783 5784 5782 5780 5775 5770 5763 5756 5747 5740 5736 5732 5728 5724 5721 5717 5713 5709 5705 5700 5696 5691 5687 5684 5678 5673 5670 5668 5663 5659 5658 5656 5655 5652 5649 5646 5643
5764 5769 5772 5776 5777 5777 5779 5779 5777 5772 5769 5765 5756 5747 5739 5731 5724 5719 5715 5712 5710 5707 5703 5698 5695 5691 5687 5682 5678 5675 5671 5665 5660 5659 5656 5650 5647 5643 5644 5642 5639 5637 5634
5752 5755 5758 5762 5766 5768 5771 5772 5769 5765 5761 5756 5749 5741 5732 5722 5715 5709 5704 5700 5697 5694 5690 5686 5683 5679 5676 5672 5669 5665 5662 5657 5651 5647 5644 5641 5638 5634 5631 5630 5628 5626 5623
5738 5741 5744 5748 5753 5755 5757 5758 5757 5752 5749 5745 5739 5731 5722 5714 5705 5698 5692 5687 5683 5679 5677 5674 5670 5667 5663 5659 5656 5654 5650 5646 5641 5636 5632 5629 5625 5622 5618 5614 5612 5611 5609
5723 5726 5730 5735 5737 5739 5741 5741 5740 5735 5733 5729 5723 5717 5709 5701 5693 5685 5679 5674 5669 5665 5662 5659 5657 5653 5650 5646 5643 5640 5636 5632 5628 5623 5619 5615 5611 5607 5603 5599 5596 5593 5593
5708 5711 5714 5718 5719 5721 5722 5722 5721 5716 5713 5710 5705 5700 5695 5688 5681 5673 5666 5661 5655 5651 5648 5645 5642 5639 5636 5632 5629 5625 5621 5617 5613 5608 5604 5600 5596 5593 5589 5584 5579 5576 5575
5692 5695 5697 5698 5700 5701 5702 5702 5701 5697 5695 5692 5687 5682 5677 5672 5664 5658 5652 5646 5640 5635 5634 5631 5627 5624 5621 5617 5614 5610 5605 5602 5598 5594 5589 5584 5580 5577 5573 5568 5563 5558 5555
5677 5678 5679 5680 5681 5681 5681 5682 5681 5677 5674 5671 5668 5663 5658 5653 5646 5640 5636 5631 5626 5622 5618 5616 5613 5609 5606 5602 5598 5593 5589 5585 5581 5577 5573 5568 5564 5561 5557 5552 5548 5542 5536
5663 5663 5663 5662 5663 5662 5662 5662 5661 5658 5654 5652 5649 5644 5638 5634 5629 5624 5620 5616 5611 5608 5605 5602 5598 5594 5590 5586 5581 5576 5572 5568 5564 5560 5556 5552 5548 5544 5540 5536 5530 5525 5520
5646 5646 5646 5646 5646 5644 5643 5643 5641 5638 5636 5633 5629 5626 5621 5617 5612 5608 5604 5600 5597 5593 5589 5585 5581 5576 5571 5567 5563 5559 5555 5551 5546 5543 5540 5536 5533 5528 5524 5520 5515 5510 5505
5634 5632 5631 5631 5630 5628 5626 5624 5622 5620 5617 5615 5612 5609 5605 5601 5597 5592 5589 5585 5581 5577 5573 5568 5563 5558 5552 5547 5544 5540 5536 5533 5529 5526 5524 5521 5518 5513 5509 5504 5500 5495 5490
5622 5619 5617 5615 5613 5611 5609 5606 5605 5603 5601 5599 5596 5592 5587 5583 5579 5575 5572 5568 5564 5559 5554 5549 5544 5538 5533 5529 5525 5521 5518 5514 5512 5509 5507 5504 5501 5497 5493 5490 5485 5481 5477
5609 5606 5603 5600 5598 5595 5593 5591 5589 5587 5585 5582 5579 5574 5570 5565 5561 5558 5554 5550 5545 5540 5534 5529 5524 5519 5514 5510 5507 5504 5500 5498 5495 5494 5492 5490 5487 5484 5480 5476 5472 5467 5462
5597 5594 5590 5586 5583 5580 5577 5575 5572 5570 5568 5565 5561 5556 5552 5549 5544 5540 5535 5531 5527 5521 5516 5510 5505 5500 5496 5493 5489 5486 5484 5481 5479 5479 5478 5476 5475 5472 5468 5465 5459 5455 5450
5583 5580 5576 5572 5568 5565 5562 5560 5557 5553 5551 5547 5543 5538 5534 5530 5526 5521 5517 5513 5508 5503 5498 5492 5487 5483 5480 5476 5474 5471 5467 5466 5464 5463 5463 5462 5461 5458 5455 5452 5449 5446 5442
5570 5565 5561 5557 5553 5549 5547 5544 5541 5538 5534 5530 5526 5521 5517 5512 5508 5505 5499 5494 5489 5485 5480 5476 5471 5467 5463 5461 5459 5456 5453 5451 5450 5449 5448 5449 5448 5445 5442 5440 5439 5437 5435
5556 5552 5548 5544 5540 5537 5533 5530 5527 5524 5519 5515 5510 5506 5501 5497 5492 5487 5482 5477 5473 5469 5465 5461 5456 5452 5449 5446 5443 5441 5438 5437 5436 5436 5436 5435 5435 5434 5432 5431 5430 5430 5430
5544 5540 5536 5532 5528 5525 5521 5518 5513 5509 5505 5500 5496 5492 5487 5482 5477 5471 5466 5462 5457 5454 5450 5446 5442 5437 5434 5432 5429 5427 5425 5424 5424 5425 5425 5426 5426 5426 5425 5424 5424 5425 5428
5533 5529 5525 5521 5517 5513 5509 5505 5500 5496 5492 5488 5484 5479 5474 5468 5462 5457 5452 5448 5444 5440 5437 5433 5429 5425 5421 5419 5417 5415 5413 5412 5413 5414 5416 5418 5419 5420 5420 5420 5421 5422 5426
5523 5519 5514 5510 5506 5502 5498 5493 5489 5485 5481 5477 5472 5466 5460 5455 5450 5445 5440 5435 5431 5427 5423 5420 5416 5412 5410 5407 5406 5405 5403 5403 5404 5406 5409 5412 5414 5416 5419 5421 5422 5424 5426
5513 5509 5504 5499 5496 5493 5488 5483 5479 5475 5471 5467 5461 5455 5450 5445 5440 5433 5428 5423 5418 5413 5409 5405 5402 5400 5398 5396 5395 5395 5396 5397 5398 5400 5404 5408 5412 5416 5419 5422 5425 5427 5428
5504 5500 5496 5492 5488 5485 5480 5475 5471 5467 5463 5457 5451 5445 5440 5434 5429 5422 5417 5411 5405 5400 5396 5393 5390 5388 5387 5387 5388 5389 5391 5393 5395 5398 5403 5408 5412 5416 5420 5423 5426 5428 5428
5497 5493 5489 5484 5480 5476 5473 5469 5465 5461 5455 5449 5442 5436 5430 5424 5419 5413 5408 5402 5397 5393 5389 5385 5383 5381 5380 5381 5383 5385 5388 5391 5394 5398 5403 5409 5413 5417 5421 5424 5427 5429 5429
5490 5486 5481 5476 5473 5470 5466 5463 5459 5454 5448 5442 5436 5429 5423 5417 5412 5407 5402 5399 5395 5390 5386 5383 5380 5378 5378 5379 5381 5382 5386 5389 5394 5398 5403 5408 5413 5417 5421 5425 5428 5430 5431
5485 5480 5476 5472 5468 5465 5461 5458 5454 5449 5443 5436 5430 5424 5418 5413 5408 5403 5398 5396 5393 5390 5387 5384 5381 5380 5380 5381 5382 5385 5389 5393 5397 5400 5403 5408 5412 5416 5420 5424 5427 5430 5431